contact:dominique.lefevre@mio.osupytheas.fr, maurice.libes@osupytheas.fr, didier.mallarino@osupytheas.fr
Project:EMSO http://www.emso-fr.org/EMSO-France
Depth: 2436.0 m
Title:EMSO Ligure Ouest : Data MII capteur AQUADOPP
Date,Latitude,Longitude,X_East,Y_North,Z_Up,Amplitude_X,Amplitude_Y,Amplitude_Z,Batterie,SoundSpeed,Heading,Pitch,Roll,Pressure,TIS,Speed,Direction
, degrees North, degrees East, m.s-1, m.s-1,m.s-1, 1, 1, 1, Volt, m.s-1, degree, degree, degree, dbar, degree_C, m.s-1, degree
2019-12-17T00:04:03,42.805,6.029,0.001,0.01,-0.03,112.0,113.0,108.0,13.4,1505.3,325.7,-0.7,1.8,2470.266,13.31,0.01,5.7
2019-12-17T00:07:03,42.805,6.029,-0.026,-0.006,-0.021,111.0,113.0,109.0,13.4,1505.3,326.4,-0.7,1.9,2470.299,13.32,0.026,257.0
2019-12-17T00:10:03,42.805,6.029,-0.007,-0.028,0.009,113.0,114.0,108.0,13.4,1505.3,324.0,-0.7,1.8,2470.285,13.32,0.028,194.0
2019-12-17T00:13:03,42.805,6.029,-0.004,-0.017,-0.005,113.0,114.0,108.0,13.3,1505.3,323.2,-0.7,1.8,2470.19,13.33,0.017,193.2
2019-12-17T00:16:03,42.805,6.029,0.0,-0.016,0.007,112.0,114.0,109.0,13.3,1505.3,323.8,-0.7,1.8,2470.267,13.33,0.016,180.0
2019-12-17T00:19:03,42.805,6.029,0.016,-0.009,-0.004,113.0,115.0,107.0,13.4,1505.3,325.6,-0.7,1.9,2470.228,13.33,0.018,119.4
2019-12-17T00:22:03,42.805,6.029,-0.005,-0.018,-0.021,113.0,115.0,107.0,13.3,1505.3,324.3,-0.7,1.9,2470.236,13.33,0.018,195.5
2019-12-17T00:25:03,42.805,6.029,-0.002,-0.006,0.008,112.0,114.0,109.0,13.4,1505.3,325.2,-0.7,1.8,2470.175,13.33,0.006,198.4
2019-12-17T00:28:03,42.805,6.029,-0.005,-0.02,-0.036,115.0,113.0,107.0,13.3,1505.3,326.3,-0.7,1.8,2470.21,13.33,0.02,194.0
2019-12-17T00:31:03,42.805,6.029,-0.013,-0.017,-0.044,113.0,112.0,108.0,13.4,1505.4,327.1,-0.7,1.8,2470.253,13.34,0.021,217.4
2019-12-17T00:34:03,42.805,6.029,0.003,-0.001,-0.003,113.0,114.0,106.0,13.4,1505.4,325.7,-0.7,1.8,2470.231,13.34,0.003,108.4
2019-12-17T00:37:03,42.805,6.029,0.0,-0.005,-0.016,113.0,113.0,108.0,13.4,1505.3,324.9,-0.7,1.8,2470.232,13.33,0.005,180.0
2019-12-17T00:40:03,42.805,6.029,-0.008,0.0,-0.032,112.0,113.0,107.0,13.4,1505.3,328.6,-0.7,1.8,2470.248,13.33,0.008,270.0
2019-12-17T00:43:03,42.805,6.029,-0.023,-0.024,-0.014,113.0,114.0,108.0,13.4,1505.3,324.7,-0.7,1.8,2470.237,13.33,0.033,223.8
2019-12-17T00:46:03,42.805,6.029,-0.007,-0.034,-0.03,113.0,114.0,108.0,13.4,1505.3,323.5,-0.7,1.8,2470.244,13.33,0.034,191.6
2019-12-17T00:49:03,42.805,6.029,-0.003,0.018,-0.018,113.0,113.0,108.0,13.4,1505.3,327.9,-0.7,1.8,2470.178,13.33,0.018,350.5
2019-12-17T00:52:03,42.805,6.029,-0.032,-0.01,-0.012,113.0,114.0,106.0,13.4,1505.3,325.7,-0.7,1.8,2470.223,13.33,0.033,252.6
2019-12-17T00:55:03,42.805,6.029,-0.011,-0.004,-0.02,113.0,114.0,107.0,13.3,1505.3,322.7,-0.7,1.8,2470.179,13.33,0.011,250.0
2019-12-17T00:58:03,42.805,6.029,-0.001,-0.012,-0.003,114.0,112.0,108.0,13.4,1505.4,328.4,-0.7,1.8,2470.148,13.34,0.012,184.8
2019-12-17T01:04:03,42.805,6.029,-0.017,-0.009,-0.034,113.0,114.0,108.0,13.4,1505.3,328.3,-0.7,1.8,2470.245,13.31,0.019,242.1
2019-12-17T01:07:03,42.805,6.029,0.0,-0.018,-0.009,114.0,114.0,109.0,13.4,1505.3,325.0,-0.7,1.8,2470.254,13.32,0.018,180.0
2019-12-17T01:10:03,42.805,6.029,-0.031,-0.002,-0.04,113.0,112.0,108.0,13.4,1505.3,323.1,-0.7,1.8,2470.253,13.33,0.031,266.3
2019-12-17T01:13:03,42.805,6.029,-0.028,0.003,-0.03,114.0,113.0,109.0,13.3,1505.3,328.7,-0.7,1.8,2470.248,13.33,0.028,276.1
2019-12-17T01:16:03,42.805,6.029,-0.022,-0.002,-0.019,113.0,115.0,109.0,13.3,1505.3,325.6,-0.7,1.8,2470.2,13.33,0.022,264.8
2019-12-17T01:19:03,42.805,6.029,-0.033,0.004,-0.025,112.0,112.0,108.0,13.3,1505.3,323.5,-0.7,1.8,2470.224,13.33,0.033,276.9
2019-12-17T01:22:03,42.805,6.029,-0.031,0.0,-0.011,113.0,114.0,106.0,13.4,1505.3,324.6,-0.7,1.8,2470.216,13.33,0.03,270.0
2019-12-17T01:25:03,42.805,6.029,-0.035,0.001,-0.006,112.0,113.0,108.0,13.4,1505.3,324.5,-0.7,1.8,2470.191,13.33,0.035,271.6
2019-12-17T01:28:03,42.805,6.029,0.009,0.012,-0.008,114.0,114.0,107.0,13.4,1505.3,328.2,-0.7,1.8,2470.22,13.33,0.015,36.9
2019-12-17T01:31:03,42.805,6.029,0.001,0.006,-0.008,113.0,115.0,107.0,13.3,1505.3,326.2,-0.7,1.9,2470.243,13.33,0.006,9.5
2019-12-17T01:34:03,42.805,6.029,-0.029,0.007,-0.043,113.0,114.0,108.0,13.3,1505.3,327.6,-0.7,1.8,2470.207,13.33,0.029,283.6
2019-12-17T01:37:03,42.805,6.029,-0.038,-0.017,-0.028,112.0,114.0,108.0,13.4,1505.3,327.1,-0.7,1.8,2470.23,13.33,0.041,245.9
2019-12-17T01:40:03,42.805,6.029,-0.02,-0.005,0.009,113.0,114.0,107.0,13.4,1505.3,328.6,-0.7,1.9,2470.196,13.33,0.02,256.0
2019-12-17T01:43:03,42.805,6.029,-0.018,0.002,-0.011,113.0,113.0,108.0,13.4,1505.3,323.8,-0.7,1.9,2470.177,13.33,0.018,276.3
2019-12-17T01:46:03,42.805,6.029,-0.01,0.002,-0.018,112.0,114.0,109.0,13.3,1505.3,324.9,-0.7,1.8,2470.194,13.33,0.01,281.3
2019-12-17T01:49:03,42.805,6.029,-0.047,-0.011,-0.004,113.0,113.0,108.0,13.3,1505.3,327.8,-0.7,1.8,2470.214,13.33,0.048,256.8
2019-12-17T01:52:03,42.805,6.029,-0.038,0.0,-0.015,113.0,115.0,108.0,13.4,1505.3,324.9,-0.7,1.9,2470.227,13.33,0.038,270.0
2019-12-17T01:55:03,42.805,6.029,-0.028,0.012,-0.028,113.0,113.0,108.0,13.4,1505.3,326.8,-0.7,1.8,2470.195,13.33,0.03,293.2
2019-12-17T01:58:03,42.805,6.029,-0.042,0.006,-0.035,113.0,113.0,108.0,13.4,1505.3,325.0,-0.7,1.8,2470.2,13.33,0.042,278.1
2019-12-17T02:04:03,42.805,6.029,-0.044,0.012,-0.016,111.0,114.0,108.0,13.4,1505.3,326.6,-0.8,1.8,2470.229,13.31,0.045,285.3
2019-12-17T02:07:03,42.805,6.029,-0.043,-0.009,-0.017,113.0,114.0,109.0,13.4,1505.3,326.1,-0.7,1.8,2470.212,13.32,0.043,258.2
2019-12-17T02:10:03,42.805,6.029,-0.044,0.007,-0.027,112.0,113.0,107.0,13.4,1505.3,327.3,-0.7,1.8,2470.212,13.32,0.044,279.0
2019-12-17T02:13:03,42.805,6.029,-0.057,0.012,-0.029,113.0,115.0,108.0,13.3,1505.3,327.8,-0.7,1.8,2470.256,13.33,0.058,281.9
2019-12-17T02:16:03,42.805,6.029,-0.036,0.006,-0.041,114.0,115.0,107.0,13.4,1505.3,324.8,-0.7,1.8,2470.209,13.33,0.036,279.5
2019-12-17T02:19:03,42.805,6.029,-0.03,0.019,-0.028,112.0,114.0,106.0,13.4,1505.3,328.3,-0.8,1.8,2470.189,13.33,0.035,302.3
2019-12-17T02:22:03,42.805,6.029,-0.031,0.012,0.006,113.0,116.0,107.0,13.4,1505.3,327.2,-0.7,1.8,2470.221,13.33,0.033,291.2
2019-12-17T02:25:03,42.805,6.029,-0.052,-0.001,-0.019,113.0,115.0,107.0,13.3,1505.3,323.8,-0.7,1.8,2470.193,13.33,0.052,268.9
2019-12-17T02:28:03,42.805,6.029,-0.061,0.009,-0.053,112.0,116.0,106.0,13.4,1505.3,324.7,-0.7,1.8,2470.167,13.33,0.061,278.4
2019-12-17T02:31:03,42.805,6.029,-0.057,0.024,-0.023,113.0,115.0,106.0,13.3,1505.3,327.5,-0.7,1.8,2470.191,13.33,0.061,292.8
2019-12-17T02:34:03,42.805,6.029,-0.026,0.014,0.001,113.0,114.0,108.0,13.3,1505.3,323.0,-0.7,1.8,2470.187,13.33,0.029,298.3
2019-12-17T02:37:03,42.805,6.029,-0.056,0.012,-0.022,112.0,114.0,107.0,13.4,1505.3,328.2,-0.7,1.9,2470.221,13.33,0.057,282.1
2019-12-17T02:40:03,42.805,6.029,-0.057,0.022,-0.009,113.0,115.0,108.0,13.3,1505.3,324.4,-0.8,1.8,2470.196,13.33,0.061,291.1
2019-12-17T02:43:03,42.805,6.029,-0.017,0.023,-0.012,113.0,113.0,107.0,13.4,1505.3,324.8,-0.7,1.8,2470.172,13.33,0.028,323.5
2019-12-17T02:46:03,42.805,6.029,-0.026,0.017,-0.001,111.0,115.0,107.0,13.4,1505.3,327.3,-0.7,1.8,2470.194,13.33,0.031,303.2
2019-12-17T02:49:03,42.805,6.029,-0.031,0.011,0.026,113.0,114.0,108.0,13.4,1505.3,324.9,-0.7,1.8,2470.167,13.33,0.032,289.5
2019-12-17T02:52:03,42.805,6.029,-0.041,0.013,-0.004,113.0,115.0,108.0,13.4,1505.3,328.0,-0.7,1.8,2470.182,13.33,0.043,287.6
2019-12-17T02:55:03,42.805,6.029,-0.033,0.024,-0.003,111.0,116.0,108.0,13.4,1505.3,324.6,-0.7,1.8,2470.209,13.33,0.04,306.0
2019-12-17T02:58:03,42.805,6.029,-0.043,0.023,0.004,112.0,115.0,108.0,13.4,1505.3,323.4,-0.8,1.8,2470.186,13.33,0.048,298.1
2019-12-17T03:04:03,42.805,6.029,-0.034,0.008,-0.012,112.0,113.0,107.0,13.4,1505.3,328.1,-0.7,1.8,2470.242,13.31,0.034,283.2
2019-12-17T03:07:03,42.805,6.029,-0.033,0.017,-0.049,113.0,116.0,107.0,13.4,1505.3,322.9,-0.8,1.8,2470.206,13.32,0.037,297.3
2019-12-17T03:10:03,42.805,6.029,-0.045,0.003,-0.046,113.0,114.0,106.0,13.3,1505.3,326.6,-0.7,1.8,2470.183,13.32,0.045,273.8
2019-12-17T03:13:03,42.805,6.029,-0.046,0.036,-0.029,111.0,115.0,107.0,13.4,1505.3,324.7,-0.7,1.8,2470.179,13.33,0.058,308.0
2019-12-17T03:16:03,42.805,6.029,-0.044,0.011,-0.016,111.0,114.0,106.0,13.4,1505.3,326.1,-0.7,1.8,2470.225,13.33,0.045,284.0
2019-12-17T03:19:03,42.805,6.029,-0.038,0.023,-0.029,113.0,114.0,108.0,13.4,1505.3,324.5,-0.7,1.9,2470.174,13.33,0.044,301.2
2019-12-17T03:22:03,42.805,6.029,-0.035,0.014,-0.042,112.0,113.0,108.0,13.4,1505.3,323.8,-0.7,1.8,2470.22,13.33,0.037,291.8
2019-12-17T03:25:03,42.805,6.029,-0.038,0.015,-0.012,114.0,113.0,108.0,13.4,1505.3,327.6,-0.7,1.8,2470.183,13.33,0.04,291.5
2019-12-17T03:28:03,42.805,6.029,-0.056,-0.009,-0.05,112.0,115.0,108.0,13.4,1505.3,327.3,-0.7,1.8,2470.233,13.33,0.056,260.9
2019-12-17T03:31:03,42.805,6.029,-0.028,0.033,-0.02,114.0,114.0,108.0,13.4,1505.3,327.6,-0.7,1.8,2470.167,13.33,0.043,319.7
2019-12-17T03:34:03,42.805,6.029,-0.031,0.012,-0.016,113.0,115.0,107.0,13.4,1505.3,323.7,-0.7,1.8,2470.164,13.33,0.033,291.2
2019-12-17T03:37:03,42.805,6.029,-0.053,0.02,-0.027,112.0,113.0,107.0,13.3,1505.3,324.7,-0.7,1.8,2470.155,13.33,0.056,290.7
2019-12-17T03:40:03,42.805,6.029,-0.054,0.016,-0.006,112.0,116.0,108.0,13.4,1505.3,325.8,-0.7,1.8,2470.199,13.33,0.056,286.5
2019-12-17T03:43:03,42.805,6.029,-0.031,0.011,-0.06,113.0,115.0,107.0,13.4,1505.3,324.2,-0.7,1.8,2470.142,13.33,0.032,289.5
2019-12-17T03:46:03,42.805,6.029,-0.03,0.026,0.003,113.0,115.0,108.0,13.4,1505.3,325.7,-0.7,1.9,2470.168,13.33,0.039,310.9
2019-12-17T03:49:03,42.805,6.029,-0.033,0.015,-0.031,113.0,116.0,108.0,13.3,1505.3,323.5,-0.7,1.8,2470.149,13.33,0.036,294.4
2019-12-17T03:52:03,42.805,6.029,-0.039,0.019,-0.006,112.0,116.0,108.0,13.3,1505.3,326.5,-0.7,1.8,2470.19,13.33,0.043,296.0
2019-12-17T03:55:03,42.805,6.029,-0.036,0.006,0.033,112.0,115.0,106.0,13.3,1505.3,326.9,-0.7,1.8,2470.196,13.33,0.036,279.5
2019-12-17T03:58:03,42.805,6.029,-0.033,0.016,-0.032,112.0,115.0,109.0,13.4,1505.3,325.9,-0.7,1.8,2470.156,13.33,0.036,295.9
2019-12-17T04:04:03,42.805,6.029,-0.051,0.015,-0.022,112.0,117.0,106.0,13.4,1505.3,323.6,-0.7,1.8,2470.177,13.31,0.053,286.4
2019-12-17T04:07:03,42.805,6.029,-0.042,0.02,-0.012,112.0,116.0,107.0,13.4,1505.3,327.7,-0.8,1.8,2470.203,13.32,0.046,295.5
2019-12-17T04:10:03,42.805,6.029,-0.035,0.024,-0.029,112.0,116.0,107.0,13.4,1505.3,327.0,-0.7,1.8,2470.17,13.32,0.042,304.4
2019-12-17T04:13:03,42.805,6.029,-0.047,0.028,-0.017,111.0,116.0,107.0,13.3,1505.3,326.4,-0.7,1.9,2470.161,13.33,0.054,300.8
2019-12-17T04:16:03,42.805,6.029,-0.036,0.033,-0.027,113.0,117.0,108.0,13.4,1505.3,325.9,-0.7,1.9,2470.126,13.33,0.048,312.5
2019-12-17T04:19:03,42.805,6.029,-0.068,0.034,-0.028,111.0,115.0,107.0,13.3,1505.3,323.5,-0.7,1.8,2470.133,13.33,0.076,296.6
2019-12-17T04:22:03,42.805,6.029,-0.022,0.02,-0.017,113.0,115.0,106.0,13.4,1505.3,324.8,-0.7,1.8,2470.179,13.33,0.029,312.3
2019-12-17T04:25:03,42.805,6.029,-0.046,0.01,0.009,112.0,115.0,107.0,13.3,1505.3,324.1,-0.7,1.8,2470.153,13.33,0.047,282.3
2019-12-17T04:28:03,42.805,6.029,-0.038,0.043,-0.045,111.0,117.0,107.0,13.4,1505.3,327.1,-0.7,1.9,2470.145,13.33,0.057,318.5
2019-12-17T04:31:03,42.805,6.029,-0.043,0.019,-0.036,113.0,115.0,107.0,13.4,1505.3,327.6,-0.7,1.9,2470.152,13.33,0.047,293.8
2019-12-17T04:34:03,42.805,6.029,-0.027,0.033,-0.015,110.0,115.0,107.0,13.4,1505.3,326.7,-0.8,1.8,2470.15,13.33,0.042,320.7
2019-12-17T04:37:03,42.805,6.029,-0.049,0.025,-0.03,111.0,115.0,106.0,13.4,1505.3,324.6,-0.7,1.8,2470.141,13.33,0.055,297.0
2019-12-17T04:40:03,42.805,6.029,-0.031,0.026,-0.066,111.0,117.0,106.0,13.3,1505.3,327.1,-0.7,1.8,2470.13,13.33,0.04,310.0
2019-12-17T04:43:03,42.805,6.029,-0.03,0.017,-0.04,112.0,115.0,106.0,13.3,1505.3,325.1,-0.7,1.8,2470.115,13.33,0.034,299.5
2019-12-17T04:46:03,42.805,6.029,-0.032,0.024,-0.023,112.0,117.0,108.0,13.4,1505.3,327.3,-0.7,1.8,2470.179,13.33,0.04,306.9
2019-12-17T04:49:03,42.805,6.029,-0.044,0.032,-0.014,112.0,115.0,108.0,13.4,1505.3,326.5,-0.7,1.8,2470.17,13.33,0.054,306.0
2019-12-17T04:52:03,42.805,6.029,-0.027,0.026,-0.007,112.0,116.0,107.0,13.4,1505.3,326.4,-0.7,1.8,2470.123,13.33,0.037,313.9
2019-12-17T04:55:03,42.805,6.029,-0.057,0.031,-0.014,112.0,114.0,107.0,13.3,1505.3,326.0,-0.7,1.8,2470.143,13.33,0.064,298.5
2019-12-17T04:58:03,42.805,6.029,-0.017,0.027,-0.01,112.0,115.0,106.0,13.3,1505.3,326.8,-0.7,1.9,2470.121,13.33,0.031,327.8
2019-12-17T05:04:03,42.805,6.029,-0.041,0.035,0.004,113.0,115.0,105.0,13.4,1505.3,327.1,-0.8,1.8,2470.206,13.31,0.053,310.5
2019-12-17T05:07:03,42.805,6.029,-0.035,0.024,-0.021,111.0,116.0,108.0,13.4,1505.3,328.4,-0.7,1.9,2470.167,13.32,0.042,304.4
2019-12-17T05:10:03,42.805,6.029,-0.051,0.015,-0.039,111.0,117.0,107.0,13.3,1505.3,323.1,-0.7,1.8,2470.171,13.32,0.053,286.4
2019-12-17T05:13:03,42.805,6.029,-0.056,0.019,-0.023,112.0,115.0,107.0,13.4,1505.3,323.0,-0.7,1.8,2470.159,13.32,0.059,288.7
2019-12-17T05:16:03,42.805,6.029,-0.035,0.016,-0.027,111.0,116.0,107.0,13.3,1505.3,324.1,-0.7,1.8,2470.17,13.33,0.038,294.6
2019-12-17T05:19:03,42.805,6.029,-0.069,0.018,-0.017,111.0,116.0,106.0,13.4,1505.3,324.4,-0.7,1.8,2470.184,13.33,0.071,284.6
2019-12-17T05:22:03,42.805,6.029,-0.037,0.009,-0.068,112.0,116.0,107.0,13.4,1505.3,324.7,-0.7,1.8,2470.104,13.33,0.038,283.7
2019-12-17T05:25:03,42.805,6.029,-0.044,0.029,-0.01,112.0,116.0,107.0,13.4,1505.3,325.3,-0.7,1.8,2470.15,13.33,0.052,303.4
2019-12-17T05:28:03,42.805,6.029,-0.055,0.022,-0.028,111.0,115.0,106.0,13.4,1505.3,327.5,-0.7,1.8,2470.173,13.33,0.059,291.8
2019-12-17T05:31:03,42.805,6.029,-0.058,0.012,-0.02,111.0,117.0,108.0,13.4,1505.3,324.6,-0.7,1.8,2470.156,13.33,0.059,281.7
2019-12-17T05:34:03,42.805,6.029,-0.041,0.022,-0.025,112.0,116.0,106.0,13.3,1505.3,325.6,-0.7,1.8,2470.174,13.33,0.046,298.2
2019-12-17T05:37:03,42.805,6.029,-0.054,0.035,-0.014,113.0,117.0,107.0,13.3,1505.3,326.4,-0.7,1.8,2470.142,13.33,0.064,303.0
2019-12-17T05:40:03,42.805,6.029,-0.042,0.015,-0.011,111.0,115.0,107.0,13.4,1505.3,325.0,-0.7,1.8,2470.181,13.33,0.044,289.6
2019-12-17T05:43:03,42.805,6.029,-0.043,0.009,-0.027,112.0,115.0,105.0,13.4,1505.3,326.2,-0.7,1.9,2470.181,13.33,0.043,281.8
2019-12-17T05:46:03,42.805,6.029,-0.03,0.034,0.006,112.0,114.0,107.0,13.4,1505.3,327.4,-0.7,1.8,2470.189,13.33,0.045,318.6
2019-12-17T05:49:03,42.805,6.029,-0.073,0.021,-0.017,113.0,115.0,107.0,13.4,1505.3,328.1,-0.7,1.8,2470.147,13.33,0.075,286.0
2019-12-17T05:52:03,42.805,6.029,-0.016,0.038,-0.016,113.0,116.0,106.0,13.4,1505.3,327.6,-0.7,1.8,2470.156,13.33,0.041,337.2
2019-12-17T05:55:03,42.805,6.029,-0.042,0.038,-0.003,112.0,116.0,107.0,13.3,1505.3,327.8,-0.7,1.8,2470.163,13.33,0.056,312.1
2019-12-17T05:58:03,42.805,6.029,-0.045,0.022,-0.013,112.0,115.0,107.0,13.3,1505.3,324.2,-0.7,1.9,2470.157,13.33,0.05,296.1
2019-12-17T06:04:03,42.805,6.029,-0.015,0.008,-0.005,111.0,116.0,106.0,13.4,1505.3,327.8,-0.8,1.8,2470.218,13.31,0.017,298.1
2019-12-17T06:07:03,42.805,6.029,-0.049,0.033,0.004,112.0,116.0,108.0,13.4,1505.3,323.3,-0.7,1.8,2470.142,13.32,0.059,304.0
2019-12-17T06:10:03,42.805,6.029,-0.038,0.02,-0.015,112.0,117.0,107.0,13.4,1505.3,325.9,-0.7,1.9,2470.188,13.32,0.042,297.8
2019-12-17T06:13:03,42.805,6.029,-0.038,0.023,-0.002,113.0,116.0,108.0,13.3,1505.3,324.1,-0.7,1.8,2470.186,13.32,0.044,301.2
2019-12-17T06:16:03,42.805,6.029,-0.039,0.029,-0.028,111.0,115.0,107.0,13.4,1505.3,326.1,-0.7,1.8,2470.203,13.33,0.048,306.6
2019-12-17T06:19:03,42.805,6.029,-0.037,0.02,-0.028,114.0,114.0,106.0,13.4,1505.3,323.8,-0.7,1.9,2470.186,13.33,0.042,298.4
2019-12-17T06:22:03,42.805,6.029,-0.052,0.017,-0.022,111.0,117.0,108.0,13.3,1505.3,325.3,-0.7,1.8,2470.223,13.33,0.054,288.1
2019-12-17T06:25:03,42.805,6.029,-0.067,0.007,-0.012,112.0,116.0,106.0,13.4,1505.3,327.1,-0.7,1.8,2470.2,13.33,0.067,276.0
2019-12-17T06:28:03,42.805,6.029,-0.048,0.039,0.003,111.0,117.0,108.0,13.4,1505.3,325.4,-0.7,1.8,2470.246,13.33,0.061,309.1
2019-12-17T06:31:03,42.805,6.029,-0.039,0.04,-0.01,112.0,116.0,107.0,13.3,1505.3,326.4,-0.7,1.9,2470.197,13.33,0.055,315.7
2019-12-17T06:34:03,42.805,6.029,-0.026,0.03,0.007,112.0,117.0,108.0,13.4,1505.3,324.8,-0.7,1.9,2470.19,13.33,0.039,319.1
2019-12-17T06:37:03,42.805,6.029,-0.046,0.02,0.002,112.0,117.0,106.0,13.3,1505.3,323.8,-0.7,1.9,2470.19,13.33,0.05,293.5
2019-12-17T06:40:03,42.805,6.029,-0.042,0.027,-0.028,113.0,116.0,107.0,13.4,1505.3,325.0,-0.7,1.9,2470.135,13.33,0.049,302.7
2019-12-17T06:43:03,42.805,6.029,-0.052,0.019,0.015,111.0,118.0,107.0,13.3,1505.3,324.4,-0.7,1.8,2470.217,13.33,0.055,290.1
2019-12-17T06:46:03,42.805,6.029,-0.041,0.032,0.001,112.0,117.0,107.0,13.3,1505.3,328.8,-0.7,1.8,2470.196,13.33,0.052,308.0
2019-12-17T06:49:03,42.805,6.029,-0.028,0.012,-0.03,114.0,117.0,108.0,13.3,1505.3,325.5,-0.7,1.8,2470.211,13.33,0.03,293.2
2019-12-17T06:52:03,42.805,6.029,-0.048,0.028,-0.044,113.0,117.0,107.0,13.3,1505.3,324.7,-0.7,1.8,2470.213,13.33,0.055,300.3
2019-12-17T06:55:03,42.805,6.029,-0.045,0.016,0.016,113.0,117.0,107.0,13.3,1505.3,325.6,-0.7,1.9,2470.152,13.33,0.047,289.6
2019-12-17T06:58:03,42.805,6.029,-0.056,0.024,-0.01,112.0,117.0,107.0,13.3,1505.3,326.9,-0.7,1.8,2470.233,13.33,0.06,293.2
2019-12-17T07:04:03,42.805,6.029,-0.044,0.024,-0.001,112.0,116.0,108.0,13.4,1505.3,326.7,-0.7,1.8,2470.247,13.31,0.05,298.6
2019-12-17T07:07:03,42.805,6.029,-0.036,0.026,-0.042,111.0,118.0,108.0,13.4,1505.3,327.0,-0.8,1.9,2470.226,13.31,0.044,305.8
2019-12-17T07:10:03,42.805,6.029,-0.071,0.028,-0.025,113.0,115.0,106.0,13.4,1505.3,325.9,-0.7,1.8,2470.255,13.32,0.076,291.5
2019-12-17T07:13:03,42.805,6.029,-0.047,0.016,-0.016,113.0,117.0,108.0,13.3,1505.3,327.8,-0.7,1.8,2470.245,13.32,0.049,288.8
2019-12-17T07:16:03,42.805,6.029,-0.06,0.036,0.0,111.0,116.0,108.0,13.3,1505.3,327.0,-0.7,1.9,2470.27,13.33,0.069,301.0
2019-12-17T07:19:03,42.805,6.029,-0.057,0.02,0.004,113.0,116.0,107.0,13.4,1505.3,328.4,-0.7,1.9,2470.213,13.33,0.06,289.3
2019-12-17T07:22:03,42.805,6.029,-0.042,0.03,-0.005,111.0,117.0,106.0,13.4,1505.3,323.2,-0.7,1.8,2470.244,13.33,0.051,305.5
2019-12-17T07:25:03,42.805,6.029,-0.044,0.026,-0.006,110.0,116.0,107.0,13.4,1505.3,326.5,-0.7,1.8,2470.234,13.33,0.051,300.6
2019-12-17T07:28:03,42.805,6.029,-0.071,0.028,-0.014,111.0,115.0,107.0,13.4,1505.3,324.4,-0.7,1.8,2470.261,13.33,0.076,291.5
2019-12-17T07:31:03,42.805,6.029,-0.038,0.023,-0.025,113.0,117.0,107.0,13.3,1505.3,328.2,-0.7,1.8,2470.245,13.33,0.044,301.2
2019-12-17T07:34:03,42.805,6.029,-0.04,0.034,-0.005,113.0,114.0,106.0,13.3,1505.3,328.6,-0.7,1.8,2470.265,13.33,0.052,310.4
2019-12-17T07:37:03,42.805,6.029,-0.059,0.036,-0.029,111.0,116.0,107.0,13.4,1505.3,327.5,-0.7,1.8,2470.275,13.33,0.069,301.4
2019-12-17T07:40:03,42.805,6.029,-0.056,0.03,0.01,112.0,115.0,106.0,13.4,1505.3,327.0,-0.7,1.8,2470.251,13.33,0.063,298.2
2019-12-17T07:43:03,42.805,6.029,-0.051,0.041,-0.029,111.0,117.0,106.0,13.4,1505.3,325.2,-0.7,1.9,2470.282,13.33,0.065,308.8
2019-12-17T07:46:03,42.805,6.029,-0.052,0.033,0.02,111.0,117.0,106.0,13.4,1505.3,324.6,-0.7,1.8,2470.268,13.33,0.061,302.4
2019-12-17T07:49:03,42.805,6.029,-0.035,0.041,-0.015,111.0,117.0,106.0,13.3,1505.3,326.2,-0.7,1.8,2470.233,13.33,0.053,319.5
2019-12-17T07:52:03,42.805,6.029,-0.032,0.031,-0.023,111.0,116.0,106.0,13.4,1505.3,323.9,-0.7,1.8,2470.295,13.33,0.044,314.1
2019-12-17T07:55:03,42.805,6.029,-0.049,0.042,-0.028,110.0,116.0,107.0,13.4,1505.3,326.8,-0.7,1.8,2470.258,13.33,0.064,310.6
2019-12-17T07:58:03,42.805,6.029,-0.059,0.037,-0.009,111.0,117.0,106.0,13.4,1505.3,324.6,-0.7,1.8,2470.262,13.33,0.069,302.1
2019-12-17T08:04:03,42.805,6.029,-0.038,0.028,-0.005,111.0,116.0,108.0,13.3,1505.3,325.2,-0.7,1.8,2470.352,13.31,0.047,306.4
2019-12-17T08:07:03,42.805,6.029,-0.076,0.015,-0.013,112.0,116.0,107.0,13.4,1505.3,323.2,-0.7,1.8,2470.318,13.31,0.077,281.2
2019-12-17T08:10:03,42.805,6.029,-0.051,0.028,0.017,111.0,115.0,106.0,13.4,1505.3,328.2,-0.7,1.8,2470.328,13.32,0.058,298.8
2019-12-17T08:13:03,42.805,6.029,-0.064,0.03,-0.017,111.0,115.0,107.0,13.3,1505.3,326.8,-0.7,1.8,2470.317,13.32,0.07,295.1
2019-12-17T08:16:03,42.805,6.029,-0.051,0.026,-0.006,111.0,115.0,107.0,13.3,1505.3,325.3,-0.7,1.8,2470.273,13.33,0.057,297.0
2019-12-17T08:19:03,42.805,6.029,-0.052,0.026,-0.005,111.0,115.0,106.0,13.4,1505.3,324.7,-0.7,1.9,2470.31,13.33,0.058,296.6
2019-12-17T08:22:03,42.805,6.029,-0.029,0.019,-0.022,112.0,115.0,106.0,13.4,1505.3,324.6,-0.7,1.9,2470.318,13.33,0.034,303.2
2019-12-17T08:25:03,42.805,6.029,-0.046,0.03,-0.045,111.0,117.0,107.0,13.4,1505.3,326.6,-0.7,1.9,2470.349,13.33,0.054,303.1
2019-12-17T08:28:03,42.805,6.029,-0.044,0.025,-0.029,111.0,116.0,107.0,13.4,1505.3,328.6,-0.7,1.8,2470.351,13.33,0.05,299.6
2019-12-17T08:31:03,42.805,6.029,-0.058,0.029,-0.026,112.0,116.0,107.0,13.4,1505.3,326.5,-0.7,1.8,2470.312,13.33,0.064,296.6
2019-12-17T08:34:03,42.805,6.029,-0.037,0.024,-0.013,110.0,115.0,108.0,13.4,1505.3,327.6,-0.7,1.8,2470.367,13.33,0.044,303.0
2019-12-17T08:37:03,42.805,6.029,-0.048,0.048,-0.008,112.0,114.0,106.0,13.4,1505.3,325.0,-0.7,1.8,2470.351,13.33,0.067,315.0
2019-12-17T08:40:03,42.805,6.029,-0.058,0.025,-0.052,111.0,114.0,106.0,13.3,1505.3,325.8,-0.7,1.9,2470.326,13.33,0.063,293.3
2019-12-17T08:43:03,42.805,6.029,-0.038,0.036,-0.025,112.0,116.0,105.0,13.4,1505.3,326.1,-0.7,1.9,2470.355,13.33,0.052,313.5
2019-12-17T08:49:03,42.805,6.029,-0.051,0.025,-0.012,111.0,115.0,107.0,13.3,1505.3,324.9,-0.7,1.8,2470.362,13.31,0.056,296.1
2019-12-17T08:52:03,42.805,6.029,-0.021,0.032,-0.008,111.0,114.0,107.0,13.4,1505.3,326.7,-0.7,1.8,2470.393,13.31,0.038,326.7
2019-12-17T08:55:03,42.805,6.029,-0.057,0.013,-0.022,112.0,114.0,107.0,13.4,1505.3,323.1,-0.7,1.8,2470.376,13.32,0.058,282.8
2019-12-17T08:58:03,42.805,6.029,-0.039,0.016,0.005,112.0,115.0,106.0,13.4,1505.3,323.8,-0.7,1.8,2470.356,13.32,0.042,292.3
2019-12-17T09:04:03,42.805,6.029,-0.095,0.033,-0.011,112.0,115.0,106.0,13.4,1505.2,325.0,-0.7,1.8,2470.405,13.3,0.1,289.2
2019-12-17T09:07:03,42.805,6.029,-0.048,0.048,-0.009,111.0,116.0,105.0,13.3,1505.3,325.1,-0.7,1.9,2470.406,13.31,0.067,315.0
2019-12-17T09:10:03,42.805,6.029,-0.054,0.029,-0.048,111.0,115.0,107.0,13.4,1505.3,327.2,-0.7,1.8,2470.401,13.32,0.061,298.2
2019-12-17T09:13:03,42.805,6.029,-0.022,0.028,0.0,111.0,116.0,106.0,13.4,1505.3,324.7,-0.7,1.8,2470.433,13.32,0.035,321.8
2019-12-17T09:16:03,42.805,6.029,-0.051,0.025,0.007,112.0,115.0,105.0,13.4,1505.3,327.9,-0.7,1.8,2470.433,13.32,0.056,296.1
2019-12-17T09:19:03,42.805,6.029,-0.045,0.03,-0.015,111.0,114.0,106.0,13.4,1505.3,328.4,-0.7,1.9,2470.399,13.32,0.054,303.7
2019-12-17T09:22:03,42.805,6.029,-0.056,0.032,-0.01,112.0,115.0,107.0,13.3,1505.3,327.4,-0.7,1.8,2470.402,13.33,0.064,299.7
2019-12-17T09:25:03,42.805,6.029,-0.054,0.036,-0.014,112.0,115.0,105.0,13.4,1505.3,328.3,-0.7,1.8,2470.387,13.33,0.064,303.7
2019-12-17T09:28:03,42.805,6.029,-0.06,0.018,0.027,112.0,115.0,107.0,13.3,1505.3,327.6,-0.7,1.8,2470.405,13.33,0.062,286.7
2019-12-17T09:31:03,42.805,6.029,-0.066,0.038,-0.01,112.0,114.0,107.0,13.4,1505.3,327.4,-0.7,1.8,2470.428,13.33,0.076,299.9
2019-12-17T09:34:03,42.805,6.029,-0.066,0.024,-0.029,109.0,116.0,108.0,13.3,1505.3,327.5,-0.7,1.8,2470.411,13.33,0.07,290.0
2019-12-17T09:37:03,42.805,6.029,-0.08,0.036,-0.01,111.0,115.0,106.0,13.3,1505.3,327.0,-0.7,1.8,2470.374,13.33,0.087,294.2
2019-12-17T09:40:03,42.805,6.029,-0.072,0.016,-0.01,110.0,115.0,107.0,13.4,1505.3,324.7,-0.7,1.9,2470.435,13.33,0.073,282.5
2019-12-17T09:43:03,42.805,6.029,-0.059,0.042,-0.038,111.0,115.0,106.0,13.4,1505.3,327.2,-0.7,1.8,2470.385,13.33,0.072,305.4
2019-12-17T09:46:03,42.805,6.029,-0.071,0.028,-0.007,110.0,115.0,105.0,13.4,1505.3,327.4,-0.7,1.8,2470.455,13.33,0.076,291.5
2019-12-17T09:49:03,42.805,6.029,-0.055,0.035,-0.028,112.0,114.0,107.0,13.4,1505.3,326.1,-0.7,1.9,2470.399,13.33,0.065,302.5
2019-12-17T09:52:03,42.805,6.029,-0.053,0.007,-0.005,110.0,115.0,106.0,13.3,1505.3,328.2,-0.7,1.8,2470.445,13.33,0.053,277.5
2019-12-17T09:55:03,42.805,6.029,-0.061,0.022,-0.01,110.0,115.0,104.0,13.4,1505.3,326.4,-0.7,1.9,2470.434,13.33,0.064,289.8
2019-12-17T09:58:03,42.805,6.029,-0.054,0.026,-0.029,110.0,115.0,106.0,13.4,1505.3,326.5,-0.8,1.8,2470.414,13.33,0.059,295.7